Location: ??????
(41.3164°N, 22.6615°E)
Time: 19:18:27
(UTC+00:00)

CZ-2C R/B - Pass Details

Date: 26 May 2022
Orbit: 785 x 869 km, 98.2° (Epoch: 28 June)

Event Time Altitude Azimuth Distance (km) Brightness Sun altitude
Rises 01:44:49 0° 123° (ESE) 3,272 5.9 -12.5°
Reaches altitude 10° 01:47:44 10° 106° (ESE) 2,355 5.5 -12.1°
Maximum altitude 01:51:17 19° 62° (ENE) 1,822 5.6 -11.6°
Drops below altitude 10° 01:54:53 10° 19° (NNE) 2,391 6.1 -11.1°
Sets 01:57:52 0° 2° (N) 3,341 6.5 -10.7°
